Regional Weather Roundup
Issued by NWS Goodland, KS

Home | Current Version | Previous Version | Graphics & Text | Print | Product List | Glossary On
Versions: 1 2 3 4 5 6 7 8 9 10 11 12 13 14 15 16 17 18 19 20 21 22 23 24 25 26 27 28 29 30 31 32 33 34 35 36 37 38 39 40 41 42 43 44 45 46 47 48 49 50
349
ASUS43 KGLD 251308
RWRGLD

GOODLAND FORECAST AREA HOURLY WEATHER ROUNDUP
NATIONAL WEATHER SERVICE GOODLAND KS
700 AM MDT FRI MAY 25 2018

...OFFICIAL OBSERVATIONS...

CITY           SKY/WX    TMP DP  RH WIND       PRES   REMARKS
GOODLAND KS    SUNNY     59  51  75 W8        30.01R
HILL CITY KS   SUNNY     62  58  86 SW5       29.95R
IMPERIAL NEB   SUNNY     64  51  62 W8        29.99S
MCCOOK NEB     SUNNY     62  55  77 CALM      29.96S
AKRON CO       SUNNY     63  44  50 W14       30.07R
BURLINGTON CO  SUNNY     57  50  77 W9        30.05R
LIMON CO       SUNNY     57  43  59 CALM      30.13R
$$

...UNOFFICIAL OBSERVATIONS...

CITY           SKY/WX    TMP DP  RH WIND       PRES   REMARKS
COLBY KS       SUNNY     63  54  72 W9        29.99S
NORTON KS      SUNNY     64  55  72 W9        29.94
SHARON SPRINGS   N/A     60  56  86 MISG        N/A
KIT CARSON CO    N/A     60  51  71 CALM        N/A
YUMA CO        FAIR      55  46  71 W9        30.04S
$$




USA.gov is the U.S. government's official web portal to all federal, state and local government web resources and services.